THORAD AGENA D DEB, 6216

Orbit data source: Space-Track

THORAD AGENA D DEB, 6216 is space debris in SSO originally from a launch on Wed, 08 Apr 1970 UTC launched from the Air Force Western Test Range (AFWTR). Debris objects in space refer to the collection of defunct objects orbiting the Earth. Examples of debris include non-operational satellites, rocket bodies, and fragments generated from explosions, collisions, or faulty payload assembly.

Loading next visibility...
Identifier
6216, 1970-025NE
Orbit
SSO
Country
Flag of USUS
Related business
Manufacturer
Unknown
Mission
Spacecraft
Bus & Motor
Unknown
Mass
Unknown
Launch date (UTC)
1970-04-08 (56 years ago)
Launch vehicle
Unknown
Launch site
Air Force Western Test Range (AFWTR)
Object type
Payload
Rocket body
Debris
Shape & HBR
Unknown shape, 0.1 m
Radar Cross Section
Small (<0.1 m²)

Expand to show TLE details & history
Last TLE update: 6 hours ago

TLE from 6 hours ago
0 THORAD AGENA D DEB
1  6216U 70025NE  26037.16959640  .00003060  00000-0  74797-3 0  9993
2  6216  99.0129 291.9768 0216165  99.9469 262.6189 14.40150698857211
Epoch: 2026-02-06T04:04Z
TLE epoch observation values (Epoch: 2026-02-06T04:04:13.128Z)
Latitude
-0.00006°
Longitude
94.61078°
Altitude
784.022 km
Speed
7.45 km/s
True Right ascension
19h 27m 54s
True Declination
0° 00' 00"
Sunlit
Object was in daylight at epoch
Visualization orbit readout
Latitude
Unknown
Longitude
Unknown
Altitude
Unknown
Speed
Unknown
Apparent Right ascension
Unknown
Apparent Declination
Unknown
Sunlit
N/A
Visualization observer readout
Local Sidereal Time
12:26:00
Azimuth
Unknown
Elevation
Unknown
Doppler factor
Unknown
Orbital elements
Apogee altitude
909.342 km
Perigee altitude
600.949 km
Semi-major axis
7,133.282 km
Eccentricity
0.02162
Inclination
99.0129°
RAAN
291.9768°
Arg. of periapsis
99.9469°
True anomaly
260.1716°
Mean anomaly
262.6189°
Eccentric anomaly
261.39431°
Mean motion
3.60254 °/min
Orbital period
99.93 mins
BSTAR
0.00074797

Documentation

Showing up to 5 results
|